EW6456 Weather Reports


Display with metric or nautical units.
time (UTC)temp
F
wind
direction
speed
MPH
gust
MPH
rain 1hr
in
rain 24hr
in
rain mn
in
humidity
%
barometer
mb
20260902231602 88 122 1.0 10.0 0.00 0.00 0.00 22 998.8
20260902230058 87 243 0.0 6.0 0.00 0.00 0.00 24 998.8
20260902224526 86 195 0.0 10.0 0.00 0.00 0.00 25 999.0
20260902223029 86 145 1.0 7.0 0.00 0.00 0.00 25 999.1
20260902221526 89 208 0.0 5.0 0.00 0.00 0.00 22 999.2
20260902220023 88 262 0.0 0.0 0.00 0.00 0.00 22 999.3
20260902214518 89 231 0.0 0.0 0.00 0.00 0.00 22 999.7
20260902213015 89 273 0.0 2.0 0.00 0.00 0.00 23 1000.0
20260902211508 88 181 0.0 0.0 0.00 0.00 0.00 24 1000.3
20260902210009 88 212 0.0 0.0 0.00 0.00 0.00 24 1000.5
20260902204506 87 217 0.0 5.0 0.00 0.00 0.00 23 1000.8
20260902203102 87 141 0.0 1.0 0.00 0.00 0.00 27 1001.0
20260902201528 87 214 0.0 3.0 0.00 0.00 0.00 29 1001.2
20260902200023 86 117 0.0 12.0 0.00 0.00 0.00 27 1001.4
20260902194522 86 211 0.0 10.0 0.00 0.00 0.00 28 1001.6
20260902193015 85 223 1.0 11.0 0.00 0.00 0.00 29 1001.7
20260902191515 85 290 0.0 5.0 0.00 0.00 0.00 27 1001.9
20260902190010 86 221 0.0 1.0 0.00 0.00 0.00 29 1002.2
20260902184535 85 297 0.0 1.0 0.00 0.00 0.00 31 1002.4
20260902183032 84 130 0.0 4.0 0.00 0.00 0.00 32 1002.4
20260902181523 83 139 0.0 0.0 0.00 0.00 0.00 33 1002.7
20260902180021 82 274 0.0 0.0 0.00 0.00 0.00 33 1002.8
20260902174516 82 184 0.0 0.0 0.00 0.00 0.00 34 1003.2
20260902173018 80 255 0.0 0.0 0.00 0.00 0.00 36 1003.5
20260902171505 79 253 0.0 0.0 0.00 0.00 0.00 39 1003.6
20260902170001 78 245 0.0 0.0 0.00 0.00 0.00 40 1003.9
20260902164600 77 236 0.0 1.0 0.00 0.00 0.00 42 1004.1
20260902163056 76 248 0.0 2.0 0.00 0.00 0.00 43 1004.1
20260902161551 75 301 0.0 1.0 0.00 0.00 0.00 44 1004.0
20260902154541 71 271 0.0 0.0 0.00 0.00 0.00 52 1004.3
20260902153037 68 240 0.0 0.0 0.00 0.00 0.00 54 1004.5
20260902151533 67 286 0.0 0.0 0.00 0.00 0.00 55 1004.7
20260902150032 66 265 0.0 0.0 0.00 0.00 0.00 59 1004.9
20260902144535 64 246 0.0 0.0 0.00 0.00 0.00 63 1004.9
20260902143030 61 270 0.0 0.0 0.00 0.00 0.00 68 1005.0
20260902141527 60 257 0.0 0.0 0.00 0.00 0.00 74 1005.0
20260902140035 60 248 0.0 0.0 0.00 0.00 0.00 70 1005.1
20260902134526 59 285 0.0 0.0 0.00 0.00 0.00 73 1005.2
20260902133025 58 292 0.0 0.0 0.00 0.00 0.00 74 1005.1
20260902131524 57 290 0.0 0.0 0.00 0.00 0.00 74 1005.1
20260902130017 0 0.0 0.0 0.00 0.00 0.00 1005.0
20260902124513 0 0.0 0.0 0.00 0.00 0.00 1005.0
20260902123020 0 0.0 0.0 0.00 0.00 0.00 1005.1
20260902121507 0 0.0 0.0 0.00 0.00 0.00 1005.1
20260902120157 0 0.0 0.0 0.00 0.00 0.00 1005.4
20260902114555 0 0.0 0.0 0.00 0.00 0.00 1005.4
20260902113053 57 295 0.0 0.0 0.00 0.00 0.00 73 1005.4
20260902111552 56 302 0.0 0.0 0.00 0.00 0.00 74 1005.7
20260902110058 61 281 0.0 0.0 0.00 0.00 0.00 66 1005.5
20260902104542 61 262 0.0 0.0 0.00 0.00 0.00 64 1005.2
20260902103040 62 265 0.0 0.0 0.00 0.00 0.00 62 1005.2
20260902101540 63 295 0.0 0.0 0.00 0.00 0.00 62 1005.2
20260902100036 63 259 0.0 0.0 0.00 0.00 0.00 61 1005.2
20260902094542 63 250 0.0 0.0 0.00 0.00 0.00 61 1005.3
20260902093033 63 271 0.0 0.0 0.00 0.00 0.00 61 1005.4
20260902091532 64 248 0.0 0.0 0.00 0.00 0.00 59 1005.6
20260902090029 65 259 0.0 0.0 0.00 0.00 0.00 57 1005.6
20260902084538 66 173 0.0 0.0 0.00 0.00 0.00 55 1005.4
20260902083027 67 198 0.0 0.0 0.00 0.00 0.00 54 1005.4
20260902081525 66 302 0.0 0.0 0.00 0.00 0.00 55 1005.6
20260902080021 65 314 0.0 0.0 0.00 0.00 0.00 57 1005.6
20260902074519 65 302 0.0 0.0 0.00 0.00 0.00 57 1005.7
20260902073017 67 44 0.0 0.0 0.00 0.00 0.00 54 1005.8
20260902071513 65 288 0.0 0.0 0.00 0.00 0.00 57 1005.9
20260902070007 64 288 0.0 0.0 0.00 0.00 0.00 60 1005.8
20260902064502 62 284 0.0 0.0 0.00 0.00 0.00 68 1005.9
20260902063105 63 285 0.0 0.0 0.00 0.00 0.00 69 1006.0
20260902061613 65 75 0.0 0.0 0.00 0.00 0.00 60 1006.1
20260902060057 66 354 0.0 0.0 0.00 0.00 0.00 51 1006.1
20260902054556 66 276 0.0 0.0 0.00 0.00 0.00 51 1006.1
20260902053056 66 276 0.0 0.0 0.00 0.00 0.00 53 1006.1
20260902051557 67 288 0.0 0.0 0.00 0.00 0.00 51 1006.3
20260902050052 67 288 0.0 0.0 0.00 0.00 0.00 49 1006.3
20260902044552 67 288 0.0 0.0 0.00 0.00 0.00 50 1006.3
20260902043059 68 288 0.0 0.0 0.00 0.00 0.00 52 1006.4
20260902041551 68 288 0.0 0.0 0.00 0.00 0.00 48 1006.4
20260902040049 67 294 0.0 0.0 0.00 0.00 0.00 56 1006.4
20260902034548 68 294 0.0 0.0 0.00 0.00 0.00 54 1006.5
20260902033103 70 294 0.0 0.0 0.00 0.00 0.00 43 1006.5
20260902031547 71 294 0.0 0.0 0.00 0.00 0.00 42 1006.5
20260902030044 71 294 0.0 0.0 0.00 0.00 0.00 40 1006.3
20260902024544 72 294 0.0 0.0 0.00 0.00 0.00 41 1006.2
20260902023049 73 108 0.0 0.0 0.00 0.00 0.00 36 1006.2
20260902021543 75 117 0.0 0.0 0.00 0.00 0.00 34 1006.2
20260902020013 75 108 0.0 0.0 0.00 0.00 0.00 34 1006.1
20260902014526 74 130 0.0 0.0 0.00 0.00 0.00 37 1006.1
20260902013041 75 132 0.0 0.0 0.00 0.00 0.00 38 1006.2
20260902011540 77 224 0.0 0.0 0.00 0.00 0.00 35 1006.2
20260902010045 78 224 0.0 0.0 0.00 0.00 0.00 35 1006.2
20260902004536 78 224 0.0 0.0 0.00 0.00 0.00 35 1006.3
20260902003035 78 113 0.0 0.0 0.00 0.00 0.00 39 1006.3
20260902001535 77 140 0.0 0.0 0.00 0.00 0.00 40 1006.5
20260902000031 78 134 0.0 0.0 0.00 0.00 0.00 40 1006.7
20260901234527 78 55 0.0 0.0 0.00 0.00 0.00 33 1007.0
20260901233025 78 55 0.0 0.0 0.00 0.00 0.00 33 1007.0